Starlink 30355

operational
NORAD ID: 57777 Int'l Des: 2023-134 Owner: SPXS Country: US Constellation: starlink
LEOCIRCULAR

Über Starlink 30355

Beschreibung wird geladen...

Live-Position

3D-Globus wird geladen...

Nächste Überflüge

Höhenverlauf

Altitude vs Time

uPlot chart will show altitude changes over time

Zweizeiliger Elementsatz

1 57777U 23134G 25258.74510590 .00000358 00000-0 41574-4 0 9990
2 57777 43.0043 68.2000 0001074 253.7021 106.3703 15.02540419113148
Epoch: 15. Sept. 2025 • Age: 58 hours

Aktueller Status

Höhe 561.4 km
Geschwindigkeit 7.59 km/s
Subsatellitenpunkt 36.22°N, 128.61°E
Startdatum 4. Sept. 2023
Alter 2 years
Typ internet

Technische Details

Klassifizierung Payload
Masse 730.00 kg
Trockenmasse 700.00 kg
Gesamtmasse 730.00 kg
Länge 0.30 m
Durchmesser 4.10 m
Spannweite 29.00 m
Form Box + pan
Hersteller SPXS
Bus-Typ Starlink V2M
Phasenstatus In Orbit
Besitzer/Staat SPXS/US

Große Konstellationen

Loading constellations...